Powrót do katalogu

THOR ABLESTAR DEB

AktywnyLEO
NORAD 656·DEBRIS·🇺🇸 United States

Wystrzelony Jun 29, 1961 z Cape Canaveral Space Force Station

Loading…

Następne Przeloty (najbliższe 24 godziny)

TLE

ŚwieżeSource: Space-Track

Epoka: Sep 14, 2026, 03:31 UTC

1 00656U 61015HH  26257.14700107 -.00001182  00000-0 -22769-2 0  9994
2 00656  66.2917  21.8807 0651894  78.8817 288.4742 12.73084388978326

Śledź THOR ABLESTAR DEB w czasie rzeczywistym z AllMySat

Download on the App Store